"Pseudo-MPEC" for ZL2470C

Created 2018 Jun 14 18:18:19 UT using Find_Orb

Click here for an explanation of pseudo-MPECs

 
 Astrometry: 
     ZL2470C  C2018 06 14.16433 12 30 11.09 +12 56 39.0          18.8 GUNEOCP703
     ZL2470C  C2018 06 14.17481 12 30 08.87 +12 56 50.1          17.2 GUNEOCP703
     ZL2470C  C2018 06 14.18004 12 30 08.07 +12 56 54.9          18.7 GUNEOCP703

Station data:
(703) Catalina Sky Survey  (N32.417006 W110.732640)  US/Arizona.  Observers
   B. M. Africano, E. J. Christensen, D. C. Fuls, A. R. Gibbs, A. D. Grauer,
   J. A. Johnson, R. A. Kowalski, S. M. Larson, G. J. Leonard, R. L. Seaman,
   F. C. Shelly. 0.68 m Schmidt + 10K CCD.

Orbital elements:  ZL2470C
   Perihelion 2018 Oct 25.944993 +/- 83.4 TT = 22:40:47 (JD 2458417.444993)
Epoch 2018 Jun 14.0 TT = JDT 2458283.5   Earth MOID: 0.0050   Ve: 0.0549
M 188.85464 +/- 100                 (J2000 ecliptic)          AutoNEOCP
n   1.27772865 +/- 0.888            Peri.  187.42952 +/- 60
a   0.84109224 +/- 0.39             Node   247.54362 +/- 38
e   0.2162549 +/- 0.235             Incl.    2.17677 +/- 60
P   0.77/281.74d           H 23.0   G  0.15   U 12.7  SR
q 0.65920188 +/- 0.461    Q 1.02298259 +/- 5.2
From 3 observations 2018 June 14 (22.6 min); mean residual 0".96
Residuals in arcseconds: 
180614 703  .62+  .10-    180614 703  1.9-  .28+    180614 703  1.2+  .19-    

Ephemerides (geocentric):
Date (UTC) HH   RA              Dec         delta   r     elong  mag " sig PA
---- -- -- --  -------------   -----------  ------ ------ -----  --- ---- ---
2018 06 14 18  12 29 13.226   +13 08 52.21  .03598 1.0212  97.7 18.7  518 179
2018 06 14 19  12 29 08.883   +13 09 36.38  .03606 1.0212  97.7 18.7  547   0
2018 06 14 20  12 29 04.563   +13 10 20.31  .03614 1.0211  97.6 18.7  577   1
2018 06 14 21  12 29 00.266   +13 11 04.03  .03622 1.0211  97.5 18.7  607   1
2018 06 14 22  12 28 55.991   +13 11 47.52  .03630 1.0211  97.5 18.7  636   2
2018 06 14 23  12 28 51.738   +13 12 30.79  .03638 1.0211  97.4 18.7  666   3
2018 06 15 00  12 28 47.507   +13 13 13.84  .03646 1.0211  97.4 18.7  696   3
2018 06 15 01  12 28 43.298   +13 13 56.68  .03654 1.0210  97.3 18.7  726   4
2018 06 15 02  12 28 39.111   +13 14 39.30  .03662 1.0210  97.2 18.7  757   4
2018 06 15 03  12 28 34.945   +13 15 21.70  .03670 1.0210  97.2 18.7  787   5
2018 06 15 04  12 28 30.801   +13 16 03.89  .03678 1.0210  97.1 18.7  818   5
2018 06 15 05  12 28 26.678   +13 16 45.88  .03686 1.0210  97.1 18.7  848   5
2018 06 15 06  12 28 22.576   +13 17 27.65  .03694 1.0209  97.0 18.7  879   6
2018 06 15 07  12 28 18.495   +13 18 09.21  .03702 1.0209  97.0 18.7  909   6
2018 06 15 08  12 28 14.435   +13 18 50.57  .03710 1.0209  96.9 18.8  940   6
2018 06 15 09  12 28 10.395   +13 19 31.73  .03718 1.0209  96.8 18.8  971   7
2018 06 15 10  12 28 06.377   +13 20 12.68  .03726 1.0209  96.8 18.8 1002   7
2018 06 15 11  12 28 02.378   +13 20 53.43  .03734 1.0208  96.7 18.8 1033   7
2018 06 15 12  12 27 58.400   +13 21 33.97  .03742 1.0208  96.7 18.8 1064   8
2018 06 15 13  12 27 54.442   +13 22 14.33  .03750 1.0208  96.6 18.8 1096   8
2018 06 15 14  12 27 50.504   +13 22 54.48  .03758 1.0208  96.5 18.8 1127   8
2018 06 15 15  12 27 46.585   +13 23 34.44  .03766 1.0207  96.5 18.8 1159   8
2018 06 15 16  12 27 42.687   +13 24 14.20  .03774 1.0207  96.4 18.8 1190   9
2018 06 15 17  12 27 38.807   +13 24 53.77  .03782 1.0207  96.4 18.8 1222   9
2018 06 15 18  12 27 34.948   +13 25 33.15  .03790 1.0207  96.3 18.8 1254   9
2018 06 15 19  12 27 31.107   +13 26 12.34  .03797 1.0207  96.3 18.8 1285   9
2018 06 15 20  12 27 27.286   +13 26 51.34  .03805 1.0206  96.2 18.8 1317  10
2018 06 15 21  12 27 23.483   +13 27 30.15  .03813 1.0206  96.1 18.8 1349  10
2018 06 15 22  12 27 19.700   +13 28 08.78  .03821 1.0206  96.1 18.8 1381  10
2018 06 15 23  12 27 15.935   +13 28 47.22  .03829 1.0206  96.0 18.8 1413  10
2018 06 16 00  12 27 12.189   +13 29 25.48  .03837 1.0205  96.0 18.9 1446  10
2018 06 16 01  12 27 08.461   +13 30 03.56  .03845 1.0205  95.9 18.9 1478  10
2018 06 16 02  12 27 04.752   +13 30 41.45  .03853 1.0205  95.9 18.9 1510  11
2018 06 16 03  12 27 01.060   +13 31 19.17  .03861 1.0205  95.8 18.9 1543  11
2018 06 16 04  12 26 57.387   +13 31 56.71  .03869 1.0205  95.7 18.9 1575  11
2018 06 16 05  12 26 53.732   +13 32 34.08  .03877 1.0204  95.7 18.9 1608  11
2018 06 16 06  12 26 50.094   +13 33 11.26  .03885 1.0204  95.6 18.9 1640  11
2018 06 16 07  12 26 46.474   +13 33 48.28  .03893 1.0204  95.6 18.9 1673  11
2018 06 16 08  12 26 42.872   +13 34 25.12  .03901 1.0204  95.5 18.9 1706  12
2018 06 16 09  12 26 39.287   +13 35 01.79  .03908 1.0203  95.5 18.9 1738  12
2018 06 16 10  12 26 35.720   +13 35 38.29  .03916 1.0203  95.4 18.9 1771  12
2018 06 16 11  12 26 32.169   +13 36 14.62  .03924 1.0203  95.4 18.9 1804  12
2018 06 16 12  12 26 28.636   +13 36 50.79  .03932 1.0203  95.3 18.9 1837  12
2018 06 16 13  12 26 25.120   +13 37 26.79  .03940 1.0202  95.2 18.9 1870  12
2018 06 16 14  12 26 21.620   +13 38 02.62  .03948 1.0202  95.2 18.9 1904  12
2018 06 16 15  12 26 18.137   +13 38 38.29  .03956 1.0202  95.1 19.0 1937  12
2018 06 16 16  12 26 14.671   +13 39 13.79  .03964 1.0202  95.1 19.0 1970  12
2018 06 16 17  12 26 11.221   +13 39 49.14  .03972 1.0201  95.0 19.0 2004  13